| time (UTC) | temp F | wind direction | speed MPH | gust MPH | rain 1hr in | rain 24hr in | rain mn in | humidity % | barometer mb |
| 20260504110716 | 74 | 33 | 3.0 | 9.0 | 0.00 | 0.25 | 0.00 | 67 | 1013.9 |
| 20260504110216 | 74 | 349 | 3.0 | 9.0 | 0.00 | 0.25 | 0.00 | 68 | 1013.9 |
| 20260504100235 | 74 | 47 | 3.0 | 5.0 | 0.00 | 0.25 | 0.00 | 69 | 1013.5 |
| 20260504081714 | 74 | 356 | 3.0 | 9.0 | 0.00 | 0.25 | 0.00 | 68 | 1013.0 |
| 20260504081214 | 74 | 53 | 1.0 | 9.0 | 0.00 | 0.25 | 0.00 | 68 | 1013.1 |
| 20260504080714 | 74 | 27 | 3.0 | 9.0 | 0.00 | 0.25 | 0.00 | 68 | 1013.2 |
| 20260504080215 | 74 | 22 | 7.0 | 7.0 | 0.00 | 0.25 | 0.00 | 68 | 1012.9 |
| 20260504070214 | 74 | 50 | 3.0 | 9.0 | 0.00 | 0.25 | 0.00 | 69 | 1013.9 |
| 20260504060234 | 74 | 57 | 4.0 | 6.0 | 0.00 | 0.25 | 0.00 | 69 | 1014.5 |
| 20260504050733 | 74 | 65 | 1.0 | 8.0 | 0.00 | 0.25 | 0.00 | 69 | 1014.8 |
| 20260504050233 | 74 | 82 | 3.0 | 8.0 | 0.00 | 0.25 | 0.00 | 69 | 1014.8 |
| 20260504045713 | 74 | 59 | 5.0 | 10.0 | 0.00 | 0.25 | 0.00 | 69 | 1014.9 |
| 20260504045233 | 74 | 63 | 3.0 | 10.0 | 0.00 | 0.25 | 0.00 | 69 | 1014.9 |
| 20260504044713 | 74 | 33 | 2.0 | 9.0 | 0.00 | 0.25 | 0.00 | 68 | 1014.7 |
| 20260504044213 | 74 | 68 | 6.0 | 9.0 | 0.00 | 0.25 | 0.00 | 68 | 1015.1 |
| 20260504043713 | 74 | 65 | 3.0 | 9.0 | 0.00 | 0.25 | 0.00 | 69 | 1015.2 |
| 20260504043213 | 74 | 59 | 3.0 | 9.0 | 0.00 | 0.25 | 0.00 | 69 | 1015.0 |
| 20260504042713 | 74 | 73 | 4.0 | 10.0 | 0.00 | 0.25 | 0.00 | 68 | 1015.1 |
| 20260504042213 | 74 | 47 | 4.0 | 10.0 | 0.00 | 0.25 | 0.00 | 68 | 1015.2 |
| 20260504041713 | 74 | 41 | 3.0 | 10.0 | 0.00 | 0.25 | 0.00 | 69 | 1015.1 |
| 20260504041213 | 74 | 63 | 5.0 | 11.0 | 0.00 | 0.25 | 0.00 | 68 | 1015.1 |
| 20260504040713 | 74 | 48 | 6.0 | 10.0 | 0.00 | 0.25 | 0.00 | 68 | 1015.2 |
| 20260504040253 | 74 | 51 | 3.0 | 10.0 | 0.00 | 0.25 | 0.00 | 69 | 1015.2 |
| 20260504035713 | 74 | 66 | 8.0 | 10.0 | 0.00 | 0.25 | 0.25 | 69 | 1015.5 |
| 20260504035233 | 74 | 72 | 4.0 | 10.0 | 0.00 | 0.25 | 0.25 | 68 | 1015.5 |
| 20260504034713 | 74 | 51 | 7.0 | 10.0 | 0.00 | 0.25 | 0.25 | 68 | 1015.3 |
| 20260504034213 | 74 | 62 | 3.0 | 12.0 | 0.00 | 0.25 | 0.25 | 68 | 1015.5 |
| 20260504033713 | 74 | 55 | 2.0 | 12.0 | 0.00 | 0.25 | 0.25 | 68 | 1015.7 |
| 20260504033213 | 74 | 57 | 7.0 | 9.0 | 0.00 | 0.25 | 0.25 | 68 | 1015.5 |
| 20260504032713 | 74 | 70 | 5.0 | 10.0 | 0.00 | 0.25 | 0.25 | 69 | 1015.8 |
| 20260504032213 | 74 | 61 | 3.0 | 10.0 | 0.00 | 0.25 | 0.25 | 69 | 1015.7 |
| 20260504031713 | 74 | 54 | 7.0 | 8.0 | 0.00 | 0.25 | 0.25 | 69 | 1015.7 |
| 20260504031212 | 74 | 37 | 4.0 | 10.0 | 0.00 | 0.25 | 0.25 | 69 | 1015.6 |
| 20260504030712 | 74 | 56 | 4.0 | 10.0 | 0.00 | 0.25 | 0.25 | 69 | 1015.7 |
| 20260504030212 | 74 | 53 | 3.0 | 9.0 | 0.00 | 0.25 | 0.25 | 70 | 1015.6 |
| 20260504025712 | 74 | 78 | 4.0 | 12.0 | 0.00 | 0.25 | 0.25 | 69 | 1015.6 |
| 20260504025212 | 74 | 53 | 3.0 | 12.0 | 0.00 | 0.25 | 0.25 | 69 | 1015.7 |
| 20260504024712 | 74 | 62 | 7.0 | 12.0 | 0.00 | 0.25 | 0.25 | 68 | 1015.3 |
| 20260504024212 | 74 | 71 | 10.0 | 11.0 | 0.00 | 0.25 | 0.25 | 69 | 1015.4 |
| 20260504023712 | 74 | 53 | 3.0 | 9.0 | 0.00 | 0.25 | 0.25 | 68 | 1015.5 |
| 20260504023232 | 74 | 73 | 4.0 | 7.0 | 0.00 | 0.25 | 0.25 | 68 | 1015.7 |
| 20260504022712 | 74 | 54 | 7.0 | 13.0 | 0.00 | 0.25 | 0.25 | 68 | 1015.5 |
| 20260504022212 | 74 | 32 | 4.0 | 13.0 | 0.00 | 0.25 | 0.25 | 68 | 1015.7 |
| 20260504021712 | 74 | 76 | 8.0 | 8.0 | 0.00 | 0.25 | 0.25 | 67 | 1015.5 |
| 20260504021212 | 74 | 65 | 1.0 | 9.0 | 0.00 | 0.25 | 0.25 | 67 | 1015.5 |
| 20260504020712 | 74 | 71 | 7.0 | 9.0 | 0.00 | 0.25 | 0.25 | 67 | 1015.2 |
| 20260504020212 | 74 | 71 | 9.0 | 9.0 | 0.00 | 0.25 | 0.25 | 67 | 1015.3 |
| 20260504015752 | 74 | 64 | 5.0 | 10.0 | 0.00 | 0.25 | 0.25 | 67 | 1015.4 |
| 20260504015212 | 74 | 67 | 3.0 | 9.0 | 0.00 | 0.25 | 0.25 | 67 | 1015.3 |
| 20260504014712 | 74 | 79 | 5.0 | 8.0 | 0.00 | 0.25 | 0.25 | 68 | 1015.1 |
| 20260504014212 | 74 | 74 | 3.0 | 6.0 | 0.00 | 0.25 | 0.25 | 68 | 1015.0 |
| 20260504013732 | 74 | 70 | 4.0 | 6.0 | 0.00 | 0.25 | 0.25 | 68 | 1015.2 |
| 20260504013212 | 74 | 58 | 5.0 | 5.0 | 0.00 | 0.25 | 0.25 | 68 | 1015.2 |
| 20260504012712 | 74 | 99 | 3.0 | 11.0 | 0.00 | 0.25 | 0.25 | 68 | 1015.1 |
| 20260504012212 | 74 | 102 | 3.0 | 11.0 | 0.00 | 0.25 | 0.25 | 68 | 1015.1 |
| 20260504011732 | 74 | 86 | 5.0 | 8.0 | 0.00 | 0.25 | 0.25 | 68 | 1015.1 |
| 20260504011212 | 74 | 80 | 8.0 | 10.0 | 0.00 | 0.25 | 0.25 | 68 | 1014.9 |
| 20260504010712 | 74 | 65 | 3.0 | 9.0 | 0.00 | 0.25 | 0.25 | 68 | 1015.1 |
| 20260504010212 | 74 | 60 | 2.0 | 4.0 | 0.00 | 0.25 | 0.25 | 68 | 1014.7 |
| 20260504005732 | 74 | 66 | 3.0 | 8.0 | 0.00 | 0.25 | 0.25 | 68 | 1015.1 |
| 20260504005232 | 74 | 60 | 6.0 | 7.0 | 0.00 | 0.25 | 0.25 | 68 | 1015.0 |
| 20260504004712 | 74 | 59 | 4.0 | 6.0 | 0.00 | 0.25 | 0.25 | 68 | 1014.9 |
| 20260504004212 | 74 | 78 | 2.0 | 10.0 | 0.00 | 0.25 | 0.25 | 67 | 1014.9 |
| 20260504003711 | 74 | 44 | 4.0 | 9.0 | 0.00 | 0.25 | 0.25 | 67 | 1015.0 |
| 20260504003211 | 74 | 41 | 6.0 | 9.0 | 0.00 | 0.25 | 0.25 | 68 | 1014.9 |
| 20260504002711 | 74 | 52 | 1.0 | 7.0 | 0.00 | 0.25 | 0.25 | 68 | 1014.7 |
| 20260504002232 | 74 | 30 | 2.0 | 7.0 | 0.00 | 0.25 | 0.25 | 68 | 1014.8 |
| 20260504001711 | 74 | 77 | 3.0 | 7.0 | 0.00 | 0.25 | 0.25 | 68 | 1014.6 |
| 20260504001211 | 74 | 40 | 6.0 | 10.0 | 0.00 | 0.25 | 0.25 | 67 | 1014.4 |
| 20260504000711 | 74 | 71 | 7.0 | 7.0 | 0.00 | 0.25 | 0.25 | 67 | 1014.6 |
| 20260504000252 | 74 | 80 | 1.0 | 5.0 | 0.00 | 0.25 | 0.25 | 66 | 1014.7 |
| 20260503235711 | 74 | 82 | 3.0 | 7.0 | 0.00 | 0.25 | 0.25 | 66 | 1014.5 |
| 20260503235211 | 74 | 38 | 3.0 | 7.0 | 0.00 | 0.25 | 0.25 | 67 | 1014.5 |
| 20260503234711 | 74 | 62 | 3.0 | 7.0 | 0.00 | 0.25 | 0.25 | 66 | 1014.8 |
| 20260503234211 | 74 | 57 | 9.0 | 9.0 | 0.00 | 0.25 | 0.25 | 67 | 1014.5 |
| 20260503233711 | 74 | 67 | 3.0 | 7.0 | 0.00 | 0.25 | 0.25 | 67 | 1014.4 |
| 20260503233211 | 74 | 74 | 6.0 | 6.0 | 0.00 | 0.25 | 0.25 | 67 | 1014.4 |
| 20260503232711 | 74 | 67 | 2.0 | 7.0 | 0.00 | 0.25 | 0.25 | 67 | 1014.5 |
| 20260503232211 | 74 | 42 | 2.0 | 7.0 | 0.00 | 0.25 | 0.25 | 67 | 1014.3 |
| 20260503231711 | 74 | 50 | 2.0 | 7.0 | 0.00 | 0.25 | 0.25 | 67 | 1014.4 |
| 20260503231231 | 74 | 31 | 4.0 | 8.0 | 0.00 | 0.25 | 0.25 | 67 | 1014.3 |
| 20260503230751 | 74 | 38 | 5.0 | 8.0 | 0.00 | 0.25 | 0.25 | 66 | 1014.4 |
| 20260503230211 | 74 | 29 | 2.0 | 8.0 | 0.00 | 0.25 | 0.25 | 66 | 1014.2 |
| 20260503225711 | 74 | 37 | 4.0 | 10.0 | 0.00 | 0.25 | 0.25 | 67 | 1014.0 |
| 20260503225231 | 74 | 63 | 4.0 | 10.0 | 0.00 | 0.25 | 0.25 | 67 | 1014.3 |
| 20260503224711 | 74 | 50 | 5.0 | 10.0 | 0.00 | 0.25 | 0.25 | 67 | 1014.4 |
| 20260503224211 | 74 | 49 | 4.0 | 10.0 | 0.00 | 0.25 | 0.25 | 67 | 1014.1 |
| 20260503223711 | 74 | 33 | 5.0 | 8.0 | 0.00 | 0.25 | 0.25 | 67 | 1014.3 |
| 20260503223211 | 74 | 46 | 4.0 | 7.0 | 0.00 | 0.25 | 0.25 | 66 | 1014.5 |
| 20260503222711 | 74 | 48 | 3.0 | 10.0 | 0.00 | 0.25 | 0.25 | 66 | 1014.3 |
| 20260503222210 | 74 | 68 | 3.0 | 10.0 | 0.00 | 0.25 | 0.25 | 65 | 1014.4 |
| 20260503221710 | 74 | 85 | 3.0 | 4.0 | 0.00 | 0.25 | 0.25 | 65 | 1014.4 |
| 20260503221230 | 74 | 55 | 4.0 | 8.0 | 0.00 | 0.25 | 0.25 | 66 | 1014.5 |
| 20260503220730 | 74 | 50 | 3.0 | 8.0 | 0.00 | 0.25 | 0.25 | 65 | 1014.4 |
| 20260503220210 | 74 | 43 | 4.0 | 7.0 | 0.00 | 0.25 | 0.25 | 65 | 1014.6 |
| 20260503215710 | 74 | 51 | 3.0 | 8.0 | 0.00 | 0.25 | 0.25 | 65 | 1014.3 |
| 20260503215210 | 74 | 59 | 8.0 | 8.0 | 0.00 | 0.25 | 0.25 | 65 | 1014.5 |
| 20260503214710 | 74 | 77 | 3.0 | 5.0 | 0.00 | 0.25 | 0.25 | 65 | 1014.6 |
| 20260503214210 | 74 | 57 | 10.0 | 10.0 | 0.00 | 0.25 | 0.25 | 65 | 1014.5 |
| 20260503213710 | 74 | 55 | 10.0 | 10.0 | 0.00 | 0.25 | 0.25 | 66 | 1014.4 |
| 20260503213210 | 74 | 56 | 3.0 | 8.0 | 0.00 | 0.25 | 0.25 | 66 | 1014.4 |
| 20260503212710 | 74 | 74 | 3.0 | 10.0 | 0.00 | 0.25 | 0.25 | 65 | 1014.7 |
| 20260503212210 | 74 | 73 | 4.0 | 10.0 | 0.00 | 0.25 | 0.25 | 65 | 1014.5 |
| 20260503211710 | 74 | 71 | 6.0 | 10.0 | 0.00 | 0.25 | 0.25 | 65 | 1014.7 |
| 20260503211210 | 74 | 30 | 3.0 | 10.0 | 0.00 | 0.25 | 0.25 | 65 | 1014.5 |
| 20260503210710 | 74 | 67 | 7.0 | 10.0 | 0.00 | 0.25 | 0.25 | 65 | 1014.6 |
| 20260503210210 | 74 | 48 | 4.0 | 10.0 | 0.00 | 0.25 | 0.25 | 65 | 1014.5 |
| 20260503205710 | 74 | 56 | 7.0 | 8.0 | 0.00 | 0.25 | 0.25 | 64 | 1014.6 |
| 20260503205210 | 74 | 33 | 3.0 | 8.0 | 0.00 | 0.25 | 0.25 | 65 | 1014.9 |
| 20260503204710 | 74 | 32 | 2.0 | 7.0 | 0.00 | 0.25 | 0.25 | 65 | 1014.9 |
| 20260503204210 | 74 | 55 | 3.0 | 7.0 | 0.00 | 0.25 | 0.25 | 65 | 1014.9 |
| 20260503203710 | 74 | 61 | 5.0 | 7.0 | 0.00 | 0.25 | 0.25 | 66 | 1015.0 |
| 20260503203209 | 74 | 63 | 4.0 | 7.0 | 0.00 | 0.25 | 0.25 | 65 | 1015.1 |
| 20260503202709 | 74 | 13 | 3.0 | 8.0 | 0.00 | 0.25 | 0.25 | 65 | 1014.9 |
| 20260503202229 | 74 | 66 | 7.0 | 8.0 | 0.00 | 0.25 | 0.25 | 66 | 1014.9 |
| 20260503201709 | 74 | 50 | 3.0 | 7.0 | 0.00 | 0.25 | 0.25 | 65 | 1014.9 |
| 20260503201209 | 74 | 40 | 3.0 | 8.0 | 0.00 | 0.25 | 0.25 | 65 | 1015.1 |
| 20260503200709 | 74 | 72 | 2.0 | 8.0 | 0.00 | 0.25 | 0.25 | 65 | 1014.8 |
| 20260503200229 | 74 | 57 | 7.0 | 7.0 | 0.00 | 0.25 | 0.25 | 67 | 1014.8 |
| 20260503195709 | 74 | 25 | 1.0 | 8.0 | 0.00 | 0.25 | 0.25 | 67 | 1015.2 |
| 20260503195209 | 74 | 31 | 2.0 | 8.0 | 0.00 | 0.25 | 0.25 | 66 | 1014.9 |
| 20260503194709 | 74 | 347 | 3.0 | 6.0 | 0.00 | 0.25 | 0.25 | 66 | 1015.1 |
| 20260503194209 | 74 | 61 | 3.0 | 10.0 | 0.00 | 0.25 | 0.25 | 66 | 1015.1 |
| 20260503193709 | 74 | 37 | 5.0 | 10.0 | 0.00 | 0.25 | 0.25 | 67 | 1015.1 |
| 20260503193209 | 74 | 358 | 3.0 | 10.0 | 0.00 | 0.25 | 0.25 | 66 | 1015.0 |
| 20260503192709 | 74 | 53 | 3.0 | 10.0 | 0.00 | 0.25 | 0.25 | 67 | 1015.0 |
| 20260503192209 | 74 | 40 | 4.0 | 10.0 | 0.00 | 0.25 | 0.25 | 67 | 1015.2 |
| 20260503191710 | 74 | 36 | 4.0 | 4.0 | 0.00 | 0.25 | 0.25 | 68 | 1015.1 |
| 20260503191229 | 74 | 30 | 4.0 | 11.0 | 0.00 | 0.25 | 0.25 | 68 | 1015.2 |
| 20260503190709 | 74 | 43 | 3.0 | 10.0 | 0.00 | 0.25 | 0.25 | 69 | 1015.4 |
| 20260503190229 | 74 | 27 | 3.0 | 7.0 | 0.00 | 0.25 | 0.25 | 68 | 1015.5 |
| 20260503185729 | 73 | 348 | 2.0 | 9.0 | 0.00 | 0.25 | 0.25 | 69 | 1015.5 |
| 20260503185209 | 73 | 27 | 2.0 | 5.0 | 0.00 | 0.25 | 0.25 | 71 | 1015.8 |
| 20260503184729 | 73 | 10 | 1.0 | 4.0 | 0.00 | 0.25 | 0.25 | 71 | 1015.7 |
| 20260503184209 | 73 | 36 | 6.0 | 10.0 | 0.00 | 0.25 | 0.25 | 71 | 1015.8 |
| 20260503183709 | 73 | 44 | 3.0 | 7.0 | 0.00 | 0.25 | 0.25 | 71 | 1015.9 |
| 20260503183229 | 73 | 5 | 2.0 | 6.0 | 0.00 | 0.25 | 0.25 | 72 | 1016.3 |
| 20260503182709 | 73 | 21 | 3.0 | 7.0 | 0.00 | 0.25 | 0.25 | 71 | 1016.4 |
| 20260503182209 | 73 | 37 | 5.0 | 5.0 | 0.00 | 0.25 | 0.25 | 72 | 1016.1 |
| 20260503181709 | 72 | 22 | 3.0 | 5.0 | 0.00 | 0.25 | 0.25 | 71 | 1016.4 |
| 20260503181208 | 72 | 45 | 3.0 | 10.0 | 0.00 | 0.25 | 0.25 | 71 | 1016.3 |
| 20260503180709 | 72 | 19 | 3.0 | 10.0 | 0.00 | 0.25 | 0.25 | 71 | 1016.4 |
| 20260503180208 | 72 | 16 | 6.0 | 9.0 | 0.00 | 0.25 | 0.25 | 71 | 1016.5 |
| 20260503175709 | 72 | 32 | 4.0 | 6.0 | 0.00 | 0.25 | 0.25 | 72 | 1016.4 |
| 20260503175229 | 72 | 49 | 3.0 | 6.0 | 0.00 | 0.25 | 0.25 | 72 | 1016.6 |
| 20260503174708 | 72 | 12 | 3.0 | 5.0 | 0.00 | 0.25 | 0.25 | 72 | 1016.4 |
| 20260503174208 | 72 | 12 | 3.0 | 8.0 | 0.00 | 0.25 | 0.25 | 72 | 1016.5 |
| 20260503173708 | 72 | 349 | 4.0 | 8.0 | 0.00 | 0.25 | 0.25 | 72 | 1016.4 |
| 20260503173208 | 72 | 22 | 3.0 | 8.0 | 0.00 | 0.25 | 0.25 | 73 | 1016.3 |
| 20260503172708 | 72 | 7 | 3.0 | 8.0 | 0.00 | 0.25 | 0.25 | 73 | 1016.5 |
| 20260503172208 | 72 | 25 | 1.0 | 7.0 | 0.00 | 0.25 | 0.25 | 72 | 1016.4 |
| 20260503171708 | 72 | 17 | 2.0 | 7.0 | 0.00 | 0.25 | 0.25 | 72 | 1016.3 |
| 20260503171208 | 73 | 56 | 2.0 | 11.0 | 0.00 | 0.25 | 0.25 | 71 | 1016.3 |
| 20260503170708 | 73 | 43 | 7.0 | 11.0 | 0.00 | 0.25 | 0.25 | 70 | 1016.3 |
| 20260503170208 | 73 | 21 | 3.0 | 10.0 | 0.00 | 0.25 | 0.25 | 70 | 1016.1 |
| 20260503160208 | 71 | 35 | 3.0 | 8.0 | 0.00 | 0.25 | 0.25 | 77 | 1016.6 |
| 20260503150708 | 72 | 25 | 3.0 | 8.0 | 0.00 | 0.25 | 0.25 | 76 | 1016.6 |
| 20260503150208 | 72 | 58 | 4.0 | 8.0 | 0.00 | 0.25 | 0.25 | 76 | 1016.7 |
| 20260503140207 | 72 | 14 | 3.0 | 7.0 | 0.00 | 0.25 | 0.25 | 73 | 1015.8 |
| 20260503131207 | 71 | 330 | 3.0 | 9.0 | 0.00 | 0.25 | 0.25 | 76 | 1015.3 |
| 20260503130707 | 71 | 358 | 3.0 | 6.0 | 0.00 | 0.25 | 0.25 | 76 | 1015.2 |
| 20260503130227 | 71 | 328 | 6.0 | 6.0 | 0.00 | 0.25 | 0.25 | 77 | 1015.3 |